AAL3135 KMIA-KLAS

Flight info

Callsign AAL3135
Flight time N/A
Altitude 38000
Route HURCN4 SMELZ Q116 JAWJA LIT KM33G TUL PER ZAROS Q128 FLOOD KD48S DVC TYEGR CHOWW4
Aircraft B772/H-SDE2E3FGHIJ5LORVWXY/LB1D1

Departure

Time N/A
Airport Miami International Airport (KMIA)

Arrival

Time 2026-05-04 02:21
Airport Harry Reid International Airport (KLAS)
Time Latitude Longitude Altitude Speed Heading
2026-05-03 22:50 32.94251 -88.56794 38136 ft 411 kts 296°
2026-05-03 22:50 32.97369 -88.62497 38120 ft 411 kts 296°
2026-05-03 22:51 33.00483 -88.68202 38102 ft 410 kts 296°
2026-05-03 22:51 33.03574 -88.73872 38088 ft 410 kts 296°
2026-05-03 22:52 33.06673 -88.79567 38074 ft 409 kts 296°
2026-05-03 22:52 33.09771 -88.85268 38101 ft 409 kts 296°
2026-05-03 22:53 33.12864 -88.90968 38123 ft 409 kts 296°
2026-05-03 22:53 33.15951 -88.96668 38144 ft 409 kts 296°
2026-05-03 22:54 33.19040 -89.02381 38142 ft 409 kts 296°
2026-05-03 22:54 33.22125 -89.08094 38141 ft 409 kts 296°
2026-05-03 22:55 33.25208 -89.13811 38134 ft 409 kts 296°
2026-05-03 22:55 33.28287 -89.19530 38127 ft 409 kts 296°
2026-05-03 22:56 33.31361 -89.25249 38114 ft 409 kts 296°
2026-05-03 22:56 33.34412 -89.30932 38115 ft 408 kts 296°
2026-05-03 22:57 33.37479 -89.36657 38107 ft 408 kts 296°
2026-05-03 22:57 33.40539 -89.42375 38114 ft 408 kts 296°
2026-05-03 22:58 33.43597 -89.48100 38117 ft 408 kts 296°
2026-05-03 22:58 33.46648 -89.53820 38127 ft 408 kts 296°
2026-05-03 22:59 33.49699 -89.59550 38127 ft 407 kts 296°
2026-05-03 22:59 33.52745 -89.65279 38132 ft 407 kts 296°
2026-05-03 23:00 33.55784 -89.71006 38125 ft 407 kts 296°
2026-05-03 23:00 33.58827 -89.76747 38127 ft 407 kts 296°
2026-05-03 23:01 33.61868 -89.82494 38121 ft 408 kts 296°
2026-05-03 23:01 33.64904 -89.88240 38118 ft 407 kts 296°
2026-05-03 23:02 33.67938 -89.93992 38114 ft 407 kts 296°
2026-05-03 23:02 33.70968 -89.99744 38118 ft 407 kts 296°
2026-05-03 23:03 33.73980 -90.05473 38115 ft 408 kts 296°
2026-05-03 23:03 33.77028 -90.11280 38112 ft 408 kts 296°
2026-05-03 23:04 33.80057 -90.17058 38115 ft 409 kts 296°
2026-05-03 23:04 33.83090 -90.22855 38115 ft 410 kts 297°
2026-05-03 23:05 33.86105 -90.28625 38115 ft 410 kts 297°
2026-05-03 23:05 33.89139 -90.34441 38112 ft 411 kts 297°
2026-05-03 23:06 33.92176 -90.40272 38108 ft 411 kts 297°
2026-05-03 23:06 33.95214 -90.46116 38105 ft 411 kts 297°
2026-05-03 23:07 33.98250 -90.51963 38102 ft 412 kts 297°
2026-05-03 23:07 34.01287 -90.57824 38101 ft 412 kts 297°
2026-05-03 23:08 34.04326 -90.63696 38108 ft 412 kts 297°
2026-05-03 23:08 34.07340 -90.69532 38094 ft 413 kts 297°
2026-05-03 23:09 34.10377 -90.75420 38099 ft 413 kts 297°
2026-05-03 23:09 34.13409 -90.81308 38098 ft 413 kts 297°
2026-05-03 23:10 34.16441 -90.87207 38104 ft 413 kts 297°
2026-05-03 23:10 34.19466 -90.93101 38106 ft 413 kts 297°
2026-05-03 23:11 34.22498 -90.99019 38094 ft 414 kts 297°
2026-05-03 23:11 34.25523 -91.04934 38094 ft 414 kts 298°
2026-05-03 23:12 34.28553 -91.10867 38099 ft 414 kts 298°
2026-05-03 23:12 34.31556 -91.16758 38090 ft 414 kts 298°
2026-05-03 23:13 34.34577 -91.22693 38098 ft 414 kts 298°
2026-05-03 23:13 34.37600 -91.28644 38090 ft 415 kts 298°
2026-05-03 23:14 34.40622 -91.34601 38081 ft 415 kts 298°
2026-05-03 23:14 34.43642 -91.40564 38074 ft 415 kts 298°
2026-05-03 23:15 34.46664 -91.46542 38069 ft 415 kts 298°
2026-05-03 23:15 34.49681 -91.52519 38065 ft 416 kts 298°
2026-05-03 23:16 34.52696 -91.58503 38069 ft 416 kts 298°
2026-05-03 23:16 34.55709 -91.64495 38063 ft 416 kts 298°
2026-05-03 23:17 34.58723 -91.70496 38066 ft 416 kts 298°
2026-05-03 23:17 34.61714 -91.76463 38065 ft 416 kts 298°
2026-05-03 23:18 34.64723 -91.82476 38072 ft 416 kts 298°
2026-05-03 23:18 34.67728 -91.88492 38063 ft 417 kts 298°
2026-05-03 23:19 34.70737 -91.94524 38059 ft 417 kts 298°
2026-05-03 23:19 34.73741 -92.00560 38049 ft 417 kts 298°
2026-05-03 23:20 34.76741 -92.06596 38047 ft 417 kts 298°
2026-05-03 23:20 34.79742 -92.12644 38036 ft 417 kts 298°
2026-05-03 23:21 34.82045 -92.17787 38037 ft 415 kts 293°
2026-05-03 23:21 34.84479 -92.24165 38033 ft 415 kts 293°
2026-05-03 23:22 34.88121 -92.33754 38040 ft 416 kts 293°
2026-05-03 23:22 34.90557 -92.40151 38040 ft 416 kts 293°
2026-05-03 23:23 34.92998 -92.46561 38025 ft 417 kts 293°
2026-05-03 23:23 34.95421 -92.52935 38014 ft 417 kts 293°
2026-05-03 23:24 34.97858 -92.59359 38019 ft 417 kts 293°
2026-05-03 23:24 35.00292 -92.65789 38022 ft 417 kts 293°
2026-05-03 23:25 35.02721 -92.72218 38014 ft 418 kts 293°
2026-05-03 23:25 35.05150 -92.78659 38024 ft 418 kts 293°
2026-05-03 23:26 35.07575 -92.85104 38020 ft 418 kts 293°
2026-05-03 23:26 35.10003 -92.91569 38009 ft 418 kts 293°
2026-05-03 23:27 35.12422 -92.98022 38008 ft 418 kts 293°
2026-05-03 23:27 35.14828 -93.04455 38010 ft 418 kts 293°
2026-05-03 23:28 35.17244 -93.10926 38009 ft 419 kts 293°
2026-05-03 23:28 35.19660 -93.17412 38005 ft 419 kts 293°
2026-05-03 23:29 35.22072 -93.23899 38007 ft 419 kts 293°
2026-05-03 23:29 35.24482 -93.30392 38007 ft 419 kts 293°
2026-05-03 23:30 35.26888 -93.36892 38006 ft 419 kts 293°
2026-05-03 23:30 35.29273 -93.43346 38003 ft 419 kts 293°
2026-05-03 23:31 35.31671 -93.49847 38001 ft 419 kts 293°
2026-05-03 23:31 35.34073 -93.56373 38000 ft 419 kts 293°
2026-05-03 23:32 35.36465 -93.62887 38001 ft 419 kts 293°
2026-05-03 23:32 35.38839 -93.69366 37996 ft 419 kts 293°
2026-05-03 23:33 35.41222 -93.75879 37998 ft 419 kts 293°
2026-05-03 23:33 35.43602 -93.82403 37885 ft 418 kts 294°
2026-05-03 23:34 35.45948 -93.88842 37984 ft 410 kts 294°
2026-05-03 23:34 35.48274 -93.95239 37981 ft 411 kts 294°
2026-05-03 23:35 35.50608 -94.01633 37985 ft 411 kts 295°
2026-05-03 23:35 35.53110 -94.07942 37997 ft 411 kts 296°
2026-05-03 23:36 35.55656 -94.14225 37984 ft 411 kts 296°
2026-05-03 23:36 35.58189 -94.20532 37986 ft 411 kts 296°
2026-05-03 23:37 35.60700 -94.26833 38010 ft 410 kts 296°
2026-05-03 23:37 35.63205 -94.33149 37981 ft 411 kts 296°
2026-05-03 23:38 35.65689 -94.39425 38004 ft 411 kts 296°
2026-05-03 23:38 35.68186 -94.45747 38006 ft 411 kts 296°
2026-05-03 23:39 35.70682 -94.52079 38010 ft 411 kts 296°
2026-05-03 23:39 35.73176 -94.58416 37984 ft 411 kts 296°
2026-05-03 23:40 35.75666 -94.64757 37988 ft 411 kts 295°
2026-05-03 23:40 35.78151 -94.71097 37985 ft 411 kts 295°
2026-05-03 23:41 35.80632 -94.77438 37982 ft 411 kts 295°
2026-05-03 23:41 35.83092 -94.83739 37982 ft 410 kts 295°
2026-05-03 23:42 35.85561 -94.90074 37978 ft 410 kts 295°
2026-05-03 23:42 35.88021 -94.96402 37978 ft 409 kts 295°
2026-05-03 23:43 35.90479 -95.02734 37975 ft 408 kts 295°
2026-05-03 23:43 35.92926 -95.09052 37974 ft 408 kts 295°
2026-05-03 23:44 35.95370 -95.15373 37968 ft 408 kts 295°
2026-05-03 23:44 35.97810 -95.21696 37973 ft 408 kts 295°
2026-05-03 23:45 36.00244 -95.28017 37952 ft 407 kts 295°
2026-05-03 23:45 36.02660 -95.34305 37950 ft 407 kts 295°
2026-05-03 23:46 36.05089 -95.40637 37944 ft 407 kts 295°
2026-05-03 23:46 36.07510 -95.46962 37959 ft 407 kts 295°
2026-05-03 23:47 36.09929 -95.53294 37943 ft 407 kts 295°
2026-05-03 23:47 36.12330 -95.59593 37941 ft 407 kts 295°
2026-05-03 23:48 36.14738 -95.65921 37938 ft 406 kts 295°
2026-05-03 23:48 36.17141 -95.72250 37936 ft 406 kts 295°
2026-05-03 23:49 36.19542 -95.78583 37938 ft 406 kts 295°
2026-05-03 23:49 36.22041 -95.84850 37938 ft 406 kts 296°
2026-05-03 23:50 36.24182 -95.90029 37936 ft 406 kts 296°
2026-05-03 23:50 36.27179 -95.97311 37939 ft 405 kts 296°
2026-05-03 23:51 36.29709 -96.03511 37935 ft 405 kts 296°
2026-05-03 23:51 36.32249 -96.09762 37934 ft 405 kts 296°
2026-05-03 23:52 36.34778 -96.16001 37950 ft 405 kts 296°
2026-05-03 23:52 36.37305 -96.22249 37925 ft 405 kts 296°
2026-05-03 23:53 36.39830 -96.28502 37919 ft 405 kts 296°
2026-05-03 23:53 36.42336 -96.34719 37917 ft 405 kts 296°
2026-05-03 23:54 36.44853 -96.40977 37911 ft 405 kts 296°
2026-05-03 23:54 36.47364 -96.47232 37901 ft 404 kts 296°
2026-05-03 23:55 36.49873 -96.53493 37901 ft 404 kts 296°
2026-05-03 23:55 36.52374 -96.59749 37902 ft 404 kts 296°
2026-05-03 23:56 36.54873 -96.66011 37895 ft 404 kts 296°
2026-05-03 23:56 36.57367 -96.72272 37884 ft 404 kts 295°
2026-05-03 23:57 36.59857 -96.78536 37895 ft 403 kts 295°
2026-05-03 23:57 36.62323 -96.84749 37888 ft 403 kts 295°
2026-05-03 23:58 36.64803 -96.91012 37892 ft 403 kts 295°
2026-05-03 23:58 36.67273 -96.97264 37896 ft 403 kts 295°
2026-05-03 23:59 36.69743 -97.03527 37895 ft 403 kts 295°
2026-05-03 23:59 36.72209 -97.09789 37895 ft 402 kts 295°
2026-05-04 00:00 36.74615 -97.16083 37896 ft 402 kts 292°
2026-05-04 00:00 36.76455 -97.22679 37892 ft 402 kts 288°
2026-05-04 00:01 36.78194 -97.29307 37892 ft 402 kts 288°
2026-05-04 00:01 36.79926 -97.35900 37893 ft 402 kts 288°
2026-05-04 00:02 36.81671 -97.42532 37914 ft 402 kts 288°
2026-05-04 00:02 36.83416 -97.49169 37887 ft 402 kts 288°
2026-05-04 00:03 36.85157 -97.55809 37875 ft 402 kts 288°
2026-05-04 00:03 36.86895 -97.62451 37863 ft 402 kts 288°
2026-05-04 00:04 36.88628 -97.69096 37849 ft 402 kts 288°
2026-05-04 00:04 36.90357 -97.75739 37847 ft 402 kts 288°
2026-05-04 00:05 36.92084 -97.82391 37840 ft 402 kts 288°
2026-05-04 00:05 36.93806 -97.89044 37844 ft 402 kts 288°
2026-05-04 00:06 36.95511 -97.95647 37842 ft 402 kts 288°
2026-05-04 00:06 36.97225 -98.02305 37849 ft 402 kts 288°
2026-05-04 00:07 36.98938 -98.08971 37849 ft 402 kts 288°
2026-05-04 00:07 37.00357 -98.14512 37854 ft 402 kts 288°
2026-05-04 00:08 37.02065 -98.21194 37867 ft 402 kts 288°
2026-05-04 00:08 37.03769 -98.27877 37843 ft 402 kts 288°
2026-05-04 00:09 37.05454 -98.34502 37835 ft 402 kts 288°
2026-05-04 00:09 37.07158 -98.41223 37853 ft 402 kts 288°
2026-05-04 00:10 37.08835 -98.47851 37833 ft 401 kts 287°
2026-05-04 00:10 37.10520 -98.54532 37826 ft 401 kts 287°
2026-05-04 00:11 37.12198 -98.61204 37842 ft 401 kts 287°
2026-05-04 00:11 37.13861 -98.67831 37825 ft 401 kts 287°
2026-05-04 00:12 37.15542 -98.74548 37820 ft 401 kts 287°
2026-05-04 00:12 37.17197 -98.81176 37837 ft 401 kts 287°
2026-05-04 00:13 37.18859 -98.87857 37816 ft 401 kts 287°
2026-05-04 00:13 37.20519 -98.94546 37843 ft 401 kts 287°
2026-05-04 00:14 37.22175 -99.01231 37820 ft 401 kts 287°
2026-05-04 00:14 37.23826 -99.07918 37823 ft 401 kts 287°
2026-05-04 00:15 37.25473 -99.14607 37820 ft 401 kts 287°
2026-05-04 00:15 37.27116 -99.21301 37823 ft 401 kts 287°
2026-05-04 00:16 37.28744 -99.27948 37820 ft 401 kts 287°
2026-05-04 00:16 37.30380 -99.34647 37823 ft 401 kts 287°
2026-05-04 00:17 37.32012 -99.41351 37815 ft 401 kts 287°
2026-05-04 00:17 37.33633 -99.48024 37816 ft 401 kts 287°
2026-05-04 00:18 37.35260 -99.54740 37816 ft 401 kts 286°
2026-05-04 00:18 37.36881 -99.61452 37813 ft 401 kts 286°
2026-05-04 00:19 37.38500 -99.68174 37814 ft 402 kts 286°
2026-05-04 00:19 37.40118 -99.74911 37810 ft 402 kts 286°
2026-05-04 00:20 37.41733 -99.81652 37807 ft 402 kts 286°
2026-05-04 00:20 37.43343 -99.88394 37812 ft 402 kts 286°
2026-05-04 00:21 37.44942 -99.95104 37813 ft 403 kts 286°
2026-05-04 00:21 37.46548 -100.01867 37818 ft 403 kts 286°
2026-05-04 00:22 37.48150 -100.08630 37815 ft 403 kts 286°
2026-05-04 00:22 37.49751 -100.15410 37813 ft 404 kts 286°
2026-05-04 00:23 37.51347 -100.22187 37811 ft 404 kts 286°
2026-05-04 00:23 37.52942 -100.28979 37801 ft 404 kts 286°
2026-05-04 00:24 37.54533 -100.35774 37811 ft 404 kts 286°
2026-05-04 00:24 37.56113 -100.42539 37795 ft 404 kts 286°
2026-05-04 00:25 37.57698 -100.49349 37788 ft 405 kts 286°
2026-05-04 00:25 37.59279 -100.56162 37785 ft 405 kts 286°
2026-05-04 00:26 37.60858 -100.62982 37804 ft 405 kts 286°
2026-05-04 00:26 37.62435 -100.69815 37799 ft 405 kts 286°
2026-05-04 00:27 37.64010 -100.76658 37788 ft 406 kts 286°
2026-05-04 00:27 37.65579 -100.83499 37781 ft 406 kts 286°
2026-05-04 00:28 37.67145 -100.90344 37778 ft 406 kts 286°
2026-05-04 00:28 37.68700 -100.97161 37788 ft 406 kts 285°
2026-05-04 00:29 37.70261 -101.04022 37791 ft 406 kts 285°
2026-05-04 00:29 37.71818 -101.10889 37803 ft 406 kts 285°
2026-05-04 00:30 37.73370 -101.17757 37803 ft 406 kts 285°
2026-05-04 00:30 37.74919 -101.24626 37813 ft 406 kts 285°
2026-05-04 00:31 37.76464 -101.31503 37808 ft 406 kts 285°
2026-05-04 00:31 37.77996 -101.38344 37810 ft 407 kts 285°
2026-05-04 00:32 37.79533 -101.45222 37806 ft 406 kts 285°
2026-05-04 00:32 37.81065 -101.52104 37799 ft 406 kts 285°
2026-05-04 00:33 37.83357 -101.62434 37806 ft 406 kts 285°
2026-05-04 00:34 37.84881 -101.69327 37803 ft 406 kts 285°
2026-05-04 00:34 37.86396 -101.76206 37783 ft 406 kts 285°
2026-05-04 00:35 37.87900 -101.83050 37773 ft 406 kts 285°
2026-05-04 00:35 37.89407 -101.89932 37782 ft 406 kts 285°
2026-05-04 00:36 37.90914 -101.96836 37779 ft 406 kts 285°
2026-05-04 00:36 37.92415 -102.03730 37759 ft 406 kts 285°
2026-05-04 00:37 37.93911 -102.10624 37776 ft 406 kts 285°
2026-05-04 00:37 37.95393 -102.17479 37773 ft 406 kts 284°
2026-05-04 00:38 37.96881 -102.24378 37787 ft 406 kts 284°
2026-05-04 00:38 37.98366 -102.31281 37785 ft 406 kts 284°
2026-05-04 00:39 37.99576 -102.38264 37795 ft 406 kts 280°
2026-05-04 00:39 38.00544 -102.45323 37820 ft 406 kts 280°
2026-05-04 00:40 38.01498 -102.52345 37838 ft 406 kts 280°
2026-05-04 00:40 38.02462 -102.59407 37856 ft 407 kts 280°
2026-05-04 00:41 38.03429 -102.66475 37853 ft 407 kts 280°
2026-05-04 00:41 38.04394 -102.73554 37855 ft 407 kts 280°
2026-05-04 00:42 38.05355 -102.80632 37853 ft 407 kts 280°
2026-05-04 00:42 38.06309 -102.87688 37834 ft 406 kts 280°
2026-05-04 00:43 38.07252 -102.94704 37818 ft 406 kts 280°
2026-05-04 00:43 38.08203 -103.01806 37800 ft 405 kts 279°
2026-05-04 00:44 38.09137 -103.08818 37798 ft 405 kts 279°
2026-05-04 00:44 38.10073 -103.15878 37813 ft 405 kts 279°
2026-05-04 00:45 38.11003 -103.22922 37836 ft 405 kts 279°
2026-05-04 00:45 38.11924 -103.29936 37848 ft 404 kts 279°
2026-05-04 00:46 38.12845 -103.36982 37877 ft 404 kts 279°
2026-05-04 00:46 38.13762 -103.44031 37878 ft 404 kts 279°
2026-05-04 00:47 38.14675 -103.51091 37879 ft 404 kts 279°
2026-05-04 00:47 38.15584 -103.58143 37872 ft 405 kts 279°
2026-05-04 00:48 38.16488 -103.65197 37861 ft 405 kts 279°
2026-05-04 00:48 38.17389 -103.72263 37840 ft 405 kts 279°
2026-05-04 00:49 38.18281 -103.79289 37816 ft 405 kts 279°
2026-05-04 00:49 38.19173 -103.86354 37789 ft 404 kts 279°
2026-05-04 00:50 38.20060 -103.93408 37773 ft 404 kts 279°
2026-05-04 00:50 38.20942 -104.00465 37778 ft 404 kts 279°
2026-05-04 00:51 38.21818 -104.07512 37784 ft 403 kts 279°
2026-05-04 00:51 38.22691 -104.14559 37817 ft 403 kts 279°
2026-05-04 00:52 38.23557 -104.21593 37839 ft 402 kts 279°
2026-05-04 00:52 38.24418 -104.28622 37867 ft 402 kts 279°
2026-05-04 00:53 38.25274 -104.35646 37885 ft 401 kts 279°
2026-05-04 00:53 38.26119 -104.42614 37902 ft 401 kts 278°
2026-05-04 00:54 38.26966 -104.49634 37900 ft 401 kts 278°
2026-05-04 00:54 38.27666 -104.55462 37894 ft 400 kts 278°
2026-05-04 00:55 38.28502 -104.62459 37894 ft 400 kts 278°
2026-05-04 00:55 38.29334 -104.69454 37860 ft 399 kts 278°
2026-05-04 00:56 38.30162 -104.76450 37837 ft 399 kts 278°
2026-05-04 00:56 38.30984 -104.83441 37787 ft 399 kts 278°
2026-05-04 00:57 38.31802 -104.90432 37735 ft 399 kts 278°
2026-05-04 00:57 38.32611 -104.97375 37691 ft 398 kts 278°
2026-05-04 00:58 38.33415 -105.04364 37680 ft 397 kts 277°
2026-05-04 00:58 38.33615 -105.11412 37675 ft 398 kts 270°
2026-05-04 00:59 38.33108 -105.18398 37689 ft 399 kts 265°
2026-05-04 00:59 38.32352 -105.25406 37682 ft 399 kts 264°
2026-05-04 01:00 38.31585 -105.32405 37730 ft 399 kts 264°
2026-05-04 01:00 38.30827 -105.39432 37731 ft 400 kts 264°
2026-05-04 01:01 38.30071 -105.46469 37750 ft 400 kts 264°
2026-05-04 01:01 38.29314 -105.53485 37773 ft 400 kts 264°
2026-05-04 01:02 38.28555 -105.60484 37807 ft 399 kts 264°
2026-05-04 01:02 38.27793 -105.67496 37800 ft 399 kts 264°
2026-05-04 01:03 38.27033 -105.74423 37850 ft 396 kts 264°
2026-05-04 01:03 38.26272 -105.81338 37939 ft 391 kts 264°
2026-05-04 01:04 38.25502 -105.88285 37910 ft 400 kts 264°
2026-05-04 01:04 38.24718 -105.95331 37919 ft 402 kts 264°
2026-05-04 01:05 38.23929 -106.02376 37931 ft 402 kts 264°
2026-05-04 01:05 38.23143 -106.09362 37967 ft 400 kts 264°
2026-05-04 01:06 38.22346 -106.16381 37944 ft 401 kts 264°
2026-05-04 01:06 38.21547 -106.23397 37950 ft 401 kts 264°
2026-05-04 01:07 38.20741 -106.30425 37963 ft 400 kts 264°
2026-05-04 01:07 38.19937 -106.37416 37974 ft 399 kts 264°
2026-05-04 01:08 38.19130 -106.44383 37994 ft 398 kts 264°
2026-05-04 01:08 38.18324 -106.51313 37991 ft 398 kts 264°
2026-05-04 01:09 38.17511 -106.58272 38004 ft 398 kts 264°
2026-05-04 01:09 38.16693 -106.65228 38018 ft 397 kts 264°
2026-05-04 01:10 38.15872 -106.72169 38020 ft 396 kts 264°
2026-05-04 01:10 38.15051 -106.79072 38033 ft 393 kts 264°
2026-05-04 01:11 38.14234 -106.85917 38039 ft 391 kts 264°
2026-05-04 01:11 38.13414 -106.92740 38045 ft 391 kts 264°
2026-05-04 01:12 38.12591 -106.99575 38054 ft 392 kts 264°
2026-05-04 01:12 38.11765 -107.06400 38049 ft 393 kts 263°
2026-05-04 01:13 38.10929 -107.13257 38045 ft 393 kts 264°
2026-05-04 01:13 38.10089 -107.20110 38066 ft 393 kts 263°
2026-05-04 01:14 38.09244 -107.26982 38055 ft 395 kts 263°
2026-05-04 01:14 38.08391 -107.33875 38051 ft 394 kts 263°
2026-05-04 01:15 38.07543 -107.40696 38060 ft 394 kts 263°
2026-05-04 01:15 38.06685 -107.47568 38051 ft 395 kts 263°
2026-05-04 01:16 38.05818 -107.54464 38073 ft 395 kts 263°
2026-05-04 01:16 38.04951 -107.61349 38109 ft 398 kts 263°
2026-05-04 01:17 38.04077 -107.68245 38136 ft 394 kts 263°
2026-05-04 01:17 38.03209 -107.75047 38199 ft 387 kts 263°
2026-05-04 01:18 38.02348 -107.81796 38195 ft 388 kts 263°
2026-05-04 01:18 38.01482 -107.88535 38165 ft 386 kts 262°
2026-05-04 01:19 38.00623 -107.95181 38203 ft 385 kts 263°
2026-05-04 01:19 37.99644 -108.01893 38200 ft 389 kts 259°
2026-05-04 01:20 37.98300 -108.08557 38165 ft 391 kts 258°
2026-05-04 01:20 37.96934 -108.15236 38126 ft 391 kts 258°
2026-05-04 01:21 37.95568 -108.21932 38072 ft 392 kts 258°
2026-05-04 01:21 37.94207 -108.28621 38018 ft 392 kts 258°
2026-05-04 01:22 37.92842 -108.35315 37956 ft 392 kts 258°
2026-05-04 01:22 37.91475 -108.41997 37938 ft 392 kts 258°
2026-05-04 01:23 37.90103 -108.48679 37929 ft 392 kts 258°
2026-05-04 01:23 37.88734 -108.55319 37932 ft 391 kts 258°
2026-05-04 01:24 37.87359 -108.61985 37916 ft 390 kts 258°
2026-05-04 01:24 37.85989 -108.68604 37925 ft 388 kts 258°
2026-05-04 01:25 37.84618 -108.75203 37911 ft 387 kts 258°
2026-05-04 01:25 37.83244 -108.81793 37904 ft 389 kts 259°
2026-05-04 01:26 37.81865 -108.88402 37914 ft 388 kts 258°
2026-05-04 01:26 37.80485 -108.94991 37925 ft 387 kts 258°
2026-05-04 01:27 37.79133 -109.01579 37916 ft 387 kts 258°
2026-05-04 01:27 37.77786 -109.08155 37918 ft 386 kts 258°
2026-05-04 01:28 37.76437 -109.14719 37918 ft 385 kts 258°
2026-05-04 01:28 37.75092 -109.21228 37955 ft 385 kts 258°
2026-05-04 01:29 37.73734 -109.27791 37951 ft 385 kts 258°
2026-05-04 01:29 37.72369 -109.34342 37976 ft 384 kts 258°
2026-05-04 01:30 37.71018 -109.40824 37988 ft 383 kts 258°
2026-05-04 01:30 37.69655 -109.47346 37990 ft 383 kts 257°
2026-05-04 01:31 37.68293 -109.53840 38005 ft 382 kts 257°
2026-05-04 01:31 37.66926 -109.60336 38008 ft 382 kts 257°
2026-05-04 01:32 37.65556 -109.66828 37972 ft 382 kts 257°
2026-05-04 01:32 37.64195 -109.73253 37983 ft 379 kts 257°
2026-05-04 01:33 37.62833 -109.79664 37902 ft 377 kts 257°
2026-05-04 01:33 37.61467 -109.86077 37928 ft 382 kts 257°
2026-05-04 01:34 37.60076 -109.92605 37891 ft 388 kts 257°
2026-05-04 01:34 37.58667 -109.99195 37866 ft 390 kts 257°
2026-05-04 01:35 37.57264 -110.05717 37860 ft 379 kts 257°
2026-05-04 01:35 37.55887 -110.12108 37864 ft 383 kts 257°
2026-05-04 01:36 37.54480 -110.18624 37854 ft 387 kts 256°
2026-05-04 01:36 37.53059 -110.25185 37849 ft 389 kts 256°
2026-05-04 01:37 37.51642 -110.31704 37848 ft 383 kts 256°
2026-05-04 01:37 37.50232 -110.38176 37839 ft 384 kts 256°
2026-05-04 01:38 37.48814 -110.44660 37839 ft 384 kts 256°
2026-05-04 01:38 37.47393 -110.51144 37832 ft 384 kts 256°
2026-05-04 01:39 37.45967 -110.57626 37841 ft 384 kts 256°
2026-05-04 01:39 37.44539 -110.64105 37835 ft 384 kts 256°
2026-05-04 01:40 37.43117 -110.70541 37833 ft 384 kts 256°
2026-05-04 01:40 37.41684 -110.77004 37842 ft 383 kts 256°
2026-05-04 01:41 37.40489 -110.82383 37836 ft 384 kts 256°
2026-05-04 01:41 37.39047 -110.88856 37836 ft 384 kts 256°
2026-05-04 01:42 37.37601 -110.95321 37846 ft 384 kts 256°
2026-05-04 01:42 37.36153 -111.01783 37838 ft 383 kts 256°
2026-05-04 01:43 37.34706 -111.08222 37837 ft 382 kts 256°
2026-05-04 01:43 37.33258 -111.14647 37853 ft 382 kts 256°
2026-05-04 01:44 37.31809 -111.21060 37848 ft 385 kts 255°
2026-05-04 01:44 37.30338 -111.27554 37861 ft 387 kts 255°
2026-05-04 01:45 37.28857 -111.34069 37868 ft 387 kts 255°
2026-05-04 01:45 37.26634 -111.43813 37866 ft 386 kts 255°
2026-05-04 01:46 37.25164 -111.50242 37882 ft 385 kts 255°
2026-05-04 01:46 37.23681 -111.56705 37875 ft 385 kts 255°
2026-05-04 01:47 37.22194 -111.63169 37875 ft 385 kts 255°
2026-05-04 01:47 37.20704 -111.69633 37878 ft 386 kts 255°
2026-05-04 01:48 37.19171 -111.76088 37879 ft 387 kts 254°
2026-05-04 01:48 37.17438 -111.82497 37892 ft 388 kts 253°
2026-05-04 01:49 37.15691 -111.88846 37868 ft 387 kts 252°
2026-05-04 01:49 37.13947 -111.95260 37916 ft 386 kts 253°
2026-05-04 01:50 37.12228 -112.01591 37916 ft 386 kts 253°
2026-05-04 01:50 37.10495 -112.07978 37905 ft 387 kts 253°
2026-05-04 01:51 37.08757 -112.14369 37912 ft 388 kts 253°
2026-05-04 01:51 37.07013 -112.20769 37926 ft 388 kts 253°
2026-05-04 01:52 37.05263 -112.27174 37905 ft 389 kts 253°
2026-05-04 01:52 37.03510 -112.33573 37898 ft 389 kts 252°
2026-05-04 01:53 37.01757 -112.39957 37891 ft 389 kts 252°
2026-05-04 01:53 36.99993 -112.46369 37884 ft 390 kts 252°
2026-05-04 01:54 36.98223 -112.52779 37873 ft 390 kts 252°
2026-05-04 01:54 36.96450 -112.59182 37867 ft 390 kts 252°
2026-05-04 01:55 36.94672 -112.65592 37896 ft 390 kts 252°
2026-05-04 01:55 36.92892 -112.71998 37919 ft 390 kts 252°
2026-05-04 01:56 36.91104 -112.78416 37951 ft 391 kts 252°
2026-05-04 01:56 36.89311 -112.84840 37977 ft 392 kts 252°
2026-05-04 01:57 36.87509 -112.91272 37996 ft 392 kts 252°
2026-05-04 01:57 36.85706 -112.97686 38001 ft 391 kts 252°
2026-05-04 01:58 36.83904 -113.04089 37993 ft 389 kts 252°
2026-05-04 01:58 36.82144 -113.10328 37398 ft 375 kts 252°
2026-05-04 01:59 36.81290 -113.13350 36801 ft 372 kts 252°
2026-05-04 01:59 36.80429 -113.16397 36085 ft 373 kts 252°
2026-05-04 01:59 36.79555 -113.19487 35246 ft 384 kts 252°
2026-05-04 01:59 36.78651 -113.22681 34367 ft 397 kts 252°
2026-05-04 02:00 36.77723 -113.25957 33317 ft 402 kts 252°
2026-05-04 02:00 36.76789 -113.29244 32250 ft 402 kts 252°
2026-05-04 02:00 36.75851 -113.32541 31224 ft 402 kts 252°
2026-05-04 02:00 36.74918 -113.35814 30450 ft 398 kts 251°
2026-05-04 02:01 36.73998 -113.39042 29674 ft 393 kts 251°
2026-05-04 02:01 36.73083 -113.42245 28756 ft 391 kts 251°
2026-05-04 02:01 36.72176 -113.45418 27940 ft 387 kts 251°
2026-05-04 02:01 36.71279 -113.48565 27178 ft 383 kts 251°
2026-05-04 02:02 36.70387 -113.51696 26404 ft 382 kts 250°
2026-05-04 02:02 36.69502 -113.54804 25656 ft 380 kts 250°
2026-05-04 02:02 36.68614 -113.57918 24891 ft 382 kts 250°
2026-05-04 02:02 36.67714 -113.61067 24154 ft 392 kts 250°
2026-05-04 02:03 36.66781 -113.64328 23385 ft 405 kts 249°
2026-05-04 02:03 36.65844 -113.67602 22456 ft 406 kts 249°
2026-05-04 02:03 36.64898 -113.70901 21616 ft 402 kts 249°
2026-05-04 02:03 36.63964 -113.74161 20827 ft 398 kts 249°
2026-05-04 02:04 36.63036 -113.77394 20065 ft 395 kts 248°
2026-05-04 02:04 36.62111 -113.80607 19312 ft 392 kts 248°
2026-05-04 02:04 36.61192 -113.83800 18587 ft 391 kts 248°
2026-05-04 02:04 36.60276 -113.86976 17830 ft 390 kts 247°
2026-05-04 02:05 36.59358 -113.90147 17023 ft 389 kts 247°
2026-05-04 02:05 36.58206 -113.93123 16645 ft 368 kts 233°
2026-05-04 02:05 36.56676 -113.95614 16573 ft 365 kts 229°
2026-05-04 02:05 36.55047 -113.98153 16489 ft 382 kts 229°
2026-05-04 02:06 36.53380 -114.00763 16469 ft 390 kts 230°
2026-05-04 02:06 36.51709 -114.03411 16460 ft 386 kts 230°
2026-05-04 02:06 36.50073 -114.06026 16264 ft 381 kts 230°
2026-05-04 02:06 36.48463 -114.08615 16036 ft 380 kts 230°
2026-05-04 02:07 36.46841 -114.11221 15928 ft 377 kts 230°
2026-05-04 02:07 36.45262 -114.13761 15908 ft 365 kts 230°
2026-05-04 02:07 36.43726 -114.16231 15906 ft 360 kts 230°
2026-05-04 02:07 36.42177 -114.18713 15905 ft 373 kts 230°
2026-05-04 02:08 36.40578 -114.21273 15909 ft 376 kts 230°
2026-05-04 02:08 36.38969 -114.23848 15863 ft 377 kts 230°
2026-05-04 02:08 36.37364 -114.26382 15677 ft 368 kts 230°
2026-05-04 02:08 36.35790 -114.28847 15168 ft 361 kts 230°
2026-05-04 02:09 36.34243 -114.31267 14657 ft 355 kts 230°
2026-05-04 02:09 36.32718 -114.33651 14223 ft 349 kts 231°
2026-05-04 02:09 36.31229 -114.35982 13822 ft 342 kts 231°
2026-05-04 02:09 36.29767 -114.38270 13436 ft 335 kts 231°
2026-05-04 02:10 36.28330 -114.40519 12993 ft 330 kts 231°
2026-05-04 02:10 36.26922 -114.42722 12596 ft 322 kts 230°
2026-05-04 02:10 36.25545 -114.44877 12191 ft 317 kts 230°
2026-05-04 02:10 36.24167 -114.47000 11714 ft 314 kts 230°
2026-05-04 02:11 36.22803 -114.49087 11371 ft 308 kts 229°
2026-05-04 02:11 36.21456 -114.51150 10772 ft 310 kts 230°
2026-05-04 02:11 36.20106 -114.53219 10242 ft 302 kts 229°
2026-05-04 02:11 36.18819 -114.55191 9821 ft 286 kts 229°
2026-05-04 02:12 36.17618 -114.57033 9453 ft 272 kts 229°
2026-05-04 02:12 36.16440 -114.58835 9100 ft 261 kts 229°
2026-05-04 02:12 36.15318 -114.60550 8909 ft 250 kts 229°
2026-05-04 02:12 36.14251 -114.62182 8634 ft 237 kts 229°
2026-05-04 02:13 36.13221 -114.63751 8354 ft 234 kts 228°
2026-05-04 02:13 36.12193 -114.65320 8065 ft 232 kts 228°
2026-05-04 02:13 36.11194 -114.66843 7949 ft 223 kts 227°
2026-05-04 02:13 36.10219 -114.68329 7959 ft 225 kts 228°
2026-05-04 02:14 36.09232 -114.69832 7953 ft 223 kts 228°
2026-05-04 02:14 36.08270 -114.71298 7960 ft 222 kts 227°
2026-05-04 02:14 36.07480 -114.72954 7943 ft 231 kts 248°
2026-05-04 02:14 36.07301 -114.74979 7676 ft 241 kts 266°
2026-05-04 02:15 36.07363 -114.76971 7385 ft 238 kts 265°
2026-05-04 02:15 36.07385 -114.78968 7101 ft 226 kts 264°
2026-05-04 02:15 36.07390 -114.80863 6864 ft 214 kts 263°
2026-05-04 02:15 36.07390 -114.82651 6633 ft 205 kts 263°
2026-05-04 02:16 36.07387 -114.84411 6347 ft 204 kts 264°
2026-05-04 02:16 36.07385 -114.86154 6096 ft 202 kts 265°
2026-05-04 02:16 36.07383 -114.87885 5815 ft 200 kts 265°
2026-05-04 02:16 36.07383 -114.89595 5587 ft 196 kts 263°
2026-05-04 02:17 36.07382 -114.91262 5275 ft 190 kts 263°
2026-05-04 02:17 36.07382 -114.92849 5058 ft 180 kts 264°
2026-05-04 02:17 36.07379 -114.94389 4825 ft 177 kts 265°
2026-05-04 02:17 36.07379 -114.95864 4618 ft 172 kts 264°
2026-05-04 02:18 36.07376 -114.97362 4412 ft 172 kts 264°
2026-05-04 02:18 36.07376 -114.98793 4210 ft 164 kts 264°
2026-05-04 02:18 36.07374 -115.00194 4014 ft 161 kts 265°
2026-05-04 02:18 36.07373 -115.01551 3795 ft 155 kts 265°
2026-05-04 02:19 36.07374 -115.02866 3608 ft 154 kts 265°
2026-05-04 02:19 36.07370 -115.04227 3409 ft 160 kts 266°
2026-05-04 02:19 36.07369 -115.05606 3211 ft 162 kts 266°
2026-05-04 02:19 36.07381 -115.06993 3047 ft 159 kts 265°
2026-05-04 02:20 36.07380 -115.08355 2824 ft 159 kts 264°
2026-05-04 02:20 36.07370 -115.09715 2683 ft 155 kts 267°
2026-05-04 02:20 36.07381 -115.11022 2479 ft 147 kts 268°
2026-05-04 02:20 36.07372 -115.12257 2284 ft 141 kts 265°
2026-05-04 02:21 36.07368 -115.13435 2194 ft 127 kts 265°
2026-05-04 02:21 36.07362 -115.14368 2196 ft 86 kts 271°
2026-05-04 02:21 36.07366 -115.14947 2193 ft 44 kts 270°
2026-05-04 02:21 36.07366 -115.15207 2191 ft 29 kts 276°
2026-05-04 02:22 36.07419 -115.15401 2196 ft 15 kts 297°
2026-05-04 02:22 36.07463 -115.15495 2195 ft 10 kts 300°
2026-05-04 02:22 36.07485 -115.15543 2196 ft 3 kts 300°
2026-05-04 02:22 36.07496 -115.15564 2196 ft 3 kts 306°
2026-05-04 02:23 36.07498 -115.15567 2195 ft 0 kts 306°
2026-05-04 02:23 36.07551 -115.15638 2196 ft 15 kts 314°
2026-05-04 02:23 36.07625 -115.15730 2197 ft 15 kts 315°
2026-05-04 02:24 36.07703 -115.15815 2195 ft 15 kts 327°
2026-05-04 02:24 36.07793 -115.15791 2196 ft 15 kts 58°
2026-05-04 02:24 36.07803 -115.15662 2196 ft 16 kts 90°
2026-05-04 02:24 36.07804 -115.15525 2193 ft 16 kts 89°
2026-05-04 02:25 36.07805 -115.15432 2193 ft 16 kts 90°
2026-05-04 02:25 36.07805 -115.15292 2193 ft 16 kts 90°
2026-05-04 02:25 36.07804 -115.15138 2193 ft 18 kts 90°
2026-05-04 02:25 36.07796 -115.14980 2193 ft 18 kts 95°
2026-05-04 02:26 36.07786 -115.14818 2196 ft 20 kts 94°
2026-05-04 02:26 36.07774 -115.14644 2195 ft 20 kts 94°
2026-05-04 02:26 36.07763 -115.14470 2195 ft 20 kts 94°
2026-05-04 02:26 36.07755 -115.14297 2192 ft 20 kts 90°
2026-05-04 02:27 36.07754 -115.14122 2192 ft 20 kts 90°
2026-05-04 02:27 36.07754 -115.13948 2193 ft 20 kts 90°
2026-05-04 02:27 36.07761 -115.13774 2195 ft 20 kts 82°
2026-05-04 02:27 36.07769 -115.13602 2197 ft 20 kts 101°
2026-05-04 02:28 36.07754 -115.13430 2194 ft 20 kts 87°
2026-05-04 02:28 36.07787 -115.13378 2198 ft 9 kts 17°
2026-05-04 02:28 36.07850 -115.13373 2195 ft 10 kts
2026-05-04 02:28 36.07933 -115.13375 2196 ft 12 kts 359°
2026-05-04 02:29 36.08014 -115.13383 2194 ft 12 kts 337°
2026-05-04 02:29 36.08038 -115.13460 2194 ft 4 kts 272°
2026-05-04 02:29 36.08039 -115.13473 2193 ft 0 kts 272°